[[{"header":{"parameterUnit":"m.s-1","parameterCategory":1,"la1":30.2991,"la2":30.254,"lo1":-89.0895,"lo2":-89.0444,"dy":0.0017,"dx":0.0017,"nx":28,"ny":28,"refTime":"2023-10-07T03:00:00:Z","depth":0,"parameterNumber":2,"parameterNumberName":"U-component_of_WINDS"},"data":[0,0,0,0,0,0,0,0,0,0,0,0,0,0,0,0,0,0,0,0,0,0,0,0,0,0,0,0,0,0,0,0,0,0,0,0,0,0,0,0,0,0,0,0,0,0,0,0,0,0,0,0,0,0,0,0,0,0,-4.1148,-4.1149,0,-4.1196,-4.1196,-4.1197,-4.1114,-4.1111,-4.1108,-4.1105,-4.1154,-4.1158,-4.1162,0,0,0,0,0,0,0,0,0,0,0,0,0,-4.0986,-4.099,-4.1148,-4.1149,-4.1149,-4.1195,-4.1196,-4.1197,-4.1114,-4.1111,-4.1107,-4.1104,-4.1153,-4.1157,-4.1162,0,0,0,0,0,0,0,0,0,0,0,0,0,-4.1048,-4.0991,-4.1148,-4.1114,-4.1111,-4.1195,-4.1196,-4.1197,-4.1115,-4.1111,-4.1106,-4.1102,-4.1151,-4.1157,-4.1163,-4.1283,0,0,-4.1181,-4.1183,0,0,0,0,0,0,0,0,-4.1044,-4.1054,-4.1118,-4.1116,-4.1113,-4.1144,-4.1157,-4.1226,-4.1116,-4.1113,-4.1105,-4.11,-4.1154,-4.116,-4.1178,-4.1285,-4.1287,-4.1181,-4.1185,-4.1187,-4.1189,0,0,0,0,0,0,0,-4.104,-4.1051,-4.1167,-4.1119,-4.1116,-4.1096,-4.11,-4.1169,-4.1157,-4.1113,-4.1107,-4.1114,-4.1152,-4.1172,-4.1178,-4.1288,-4.1181,-4.1186,-4.119,-4.1192,-4.1497,-4.1501,0,0,0,0,0,0,-4.104,-4.1048,-4.1165,-4.1168,-4.1068,-4.1102,-4.1107,-4.1139,-4.1156,-4.1154,-4.1118,-4.111,-4.1164,-4.1171,-4.118,-4.1322,-4.1187,-4.1193,-4.1196,-4.1492,-4.1498,-4.1502,0,0,0,0,0,0,-4.1037,-4.1051,-4.1163,-4.1107,-4.1119,-4.1109,-4.1146,-4.1142,-4.1162,-4.1159,-4.1156,-4.1141,-4.1161,-4.1171,-4.1258,-4.1322,-4.1195,-4.1201,-4.1487,-4.1494,-4.15,-4.1607,0,0,0,0,0,0,-4.1033,-4.1051,-4.1096,-4.1108,-4.1123,-4.1241,-4.115,-4.1146,-4.1172,-4.1163,-4.118,-4.1179,-4.1159,-4.125,-4.1264,-4.1328,-4.1205,-4.1481,-4.149,-4.1498,-4.1598,-4.1616,-4.1633,0,0,0,0,0,-4.1027,-4.1124,-4.1099,-4.1113,-4.1179,-4.1245,-4.1253,-4.1228,-4.1178,-4.1223,-4.1222,-4.1178,-4.1313,-4.1259,-4.1274,-4.1341,-4.1477,-4.1487,-4.1497,-4.159,-4.1613,-4.1632,0,0,0,0,0,0,-4.112,-4.1125,-4.1097,-4.1201,-4.1223,-4.1231,-4.1288,-4.1254,-4.1291,-4.128,-4.1248,-4.1252,-4.1346,-4.1352,-4.1292,-4.1459,-4.1386,-4.14,-4.1451,-4.1473,-4.1491,-4.1487,-4.121,0,0,0,0,0,-4.1152,-4.1205,-4.1207,-4.1299,-4.1311,-4.1298,-4.1325,-4.1304,-4.1326,-4.1335,-4.134,-4.1362,-4.141,-4.1442,-4.1485,-4.1598,-4.1601,-4.1651,-4.1669,-4.1684,-4.1696,-4.1757,-4.1779,-4.1536,-4.1536,-4.1536,0,0,-4.122,-4.1229,-4.1265,-4.1317,-4.1332,-4.1388,-4.1306,-4.1368,-4.141,-4.1344,-4.1426,-4.1431,-4.1454,-4.1555,-4.1599,-4.1563,-4.1764,-4.1697,-4.1708,-4.1713,-4.177,-4.1793,-4.1813,-4.1543,-4.1542,-4.1541,0,0,-4.1372,-4.1384,-4.1462,-4.1479,-4.1502,-4.1493,-4.1512,-4.1525,-4.1525,-4.1607,-4.156,-4.1608,-4.169,-4.1709,-4.1729,-4.1889,-4.1851,-4.1904,-4.1996,-4.2056,-4.2075,-4.2092,-4.2149,-4.217,-4.1916,-4.1917,-4.1917,0,-4.1453,-4.1535,-4.1507,-4.1573,-4.1597,-4.1541,-4.162,-4.1637,-4.1674,-4.1692,-4.1651,-4.1753,-4.1765,-4.1869,-4.1908,-4.1926,-4.1947,-4.1902,-4.2074,-4.2091,-4.2106,-4.2161,-4.2182,-4.1923,-4.1922,-4.1922,-4.1921,0,-4.1634,-4.1692,-4.1752,-4.1789,-4.182,-4.1893,-4.1875,-4.191,-4.1887,-4.1882,-4.1966,-4.1978,-4.2023,-4.2046,-4.2024,-4.2148,-4.2125,-4.208,-4.2006,-4.2136,-4.2187,-4.2208,-4.1932,-4.193,-4.1928,-4.1926,0,0,-4.1846,-4.1867,-4.1889,-4.1906,-4.1927,-4.1972,-4.2041,-4.2085,-4.2117,-4.2144,-4.2202,-4.2273,-4.2231,-4.2254,-4.2233,-4.2286,-4.2412,-4.2234,-4.2234,-4.2267,-4.255,-4.2584,-4.2609,-4.2387,-4.2391,-4.2394,-4.2549,0,-4.1997,-4.2118,-4.2094,-4.2212,-4.2265,-4.2212,-4.2273,-4.2293,-4.2291,-4.2335,-4.2332,-4.2383,-4.2325,-4.2338,-4.2388,-4.2387,-4.2469,-4.2375,-4.2441,-4.2443,-4.2437,-4.2635,-4.2672,-4.2817,-4.2568,-4.2571,-4.2574,0,-4.219,-4.2225,-4.2348,-4.2362,-4.2383,-4.2439,-4.2477,-4.2521,-4.2543,-4.2537,-4.2564,-4.2533,-4.2602,-4.2528,-4.2623,-4.256,-4.2585,-4.2589,-4.2594,-4.26,-4.2517,-4.2647,-4.2863,-4.2885,-4.2605,-4.2602,-4.26,0,-4.2333,-4.2411,-4.2494,-4.251,-4.2528,-4.2568,-4.2578,-4.2595,-4.2624,-4.2658,-4.2676,-4.2718,-4.2741,-4.2774,-4.2755,-4.2703,-4.2854,-4.2778,-4.2852,-4.2853,-4.2886,-4.2885,-4.311,-4.2903,-4.2902,-4.2902,-4.2901,0,-4.2505,-4.2582,-4.2559,-4.261,-4.2696,-4.2668,-4.2753,-4.2756,-4.2773,-4.2824,-4.2781,-4.283,-4.2803,-4.285,-4.2836,-4.2917,-4.2928,-4.2926,-4.2921,-4.293,-4.293,-4.2946,-4.2936,-4.2908,-4.2906,-4.2905,-4.2904,0,-4.2679,-4.2666,-4.2754,-4.2764,-4.2769,-4.2831,-4.284,-4.2888,-4.2882,-4.2948,-4.2962,-4.2953,-4.3006,-4.2991,-4.3049,-4.3039,-4.3143,-4.3125,-4.3135,-4.3131,-4.3206,-4.3199,-4.345,-4.3482,-4.3253,-4.3256,-4.3257,0,-4.2789,-4.2848,-4.2865,-4.2896,-4.2909,-4.296,-4.2989,-4.2964,-4.2996,-4.3026,-4.307,-4.312,-4.3158,-4.3246,-4.3245,-4.3289,-4.3272,-4.3357,-4.3278,-4.3285,-4.3274,-4.3271,-4.3277,-4.3373,-4.3375,-4.3377,-4.3379,0,-4.2988,-4.2978,-4.3022,-4.3063,-4.3099,-4.313,-4.3158,-4.3186,-4.3163,-4.3201,-4.3255,-4.3285,-4.3344,-4.3394,-4.3434,-4.3444,-4.3408,-4.3404,-4.3423,-4.3433,-4.3437,-4.3436,-4.3179,-4.3398,-4.3396,-4.3395,-4.3394,-4.3393,-4.3133,-4.3183,-4.3203,-4.3253,-4.3271,-4.3298,-4.3344,-4.3344,-4.3389,-4.3435,-4.3417,-4.348,-4.35,-4.3551,-4.3566,-4.3614,-4.3582,-4.361,-4.3617,-4.3625,-4.3634,-4.3429,-4.3621,-4.3621,-4.362,-4.362,-4.3619,0,-4.3329,-4.334,-4.3386,-4.3426,-4.3465,-4.3428,-4.3457,-4.3492,-4.3548,-4.357,-4.3609,-4.3671,-4.372,-4.3722,-4.3768,-4.3806,-4.3791,-4.3819,-4.3816,-4.3819,-4.366,-4.3639,-4.383,-4.383,-4.383,-4.383,-4.383,-4.383,-4.3436,-4.3519,-4.3512,-4.3603,-4.3613,-4.3674,-4.3693,-4.3718,-4.3736,-4.3807,-4.3848,-4.3849,-4.3864,-4.391,-4.3953,-4.3952,-4.3971,-4.4005,-4.3999,-4.3851,-4.383,-4.381,-4.379,-4.401,-4.401,-4.4153,-4.4155,-4.4156]},{"header":{"parameterUnit":"m.s-1","parameterCategory":1,"la1":30.2991,"la2":30.254,"lo1":-89.0895,"lo2":-89.0444,"dy":0.0017,"dx":0.0017,"nx":28,"ny":28,"refTime":"2023-10-07T03:00:00:Z","depth":0,"parameterNumber":3,"parameterNumberName":"V-component_of_WINDS"},"data":[0,0,0,0,0,0,0,0,0,0,0,0,0,0,0,0,0,0,0,0,0,0,0,0,0,0,0,0,0,0,0,0,0,0,0,0,0,0,0,0,0,0,0,0,0,0,0,0,0,0,0,0,0,0,0,0,0,0,-3.6499,-3.6499,0,-3.6534,-3.6534,-3.6535,-3.6492,-3.649,-3.6489,-3.6487,-3.6521,-3.6523,-3.6525,0,0,0,0,0,0,0,0,0,0,0,0,0,-3.6393,-3.6395,-3.6499,-3.6499,-3.65,-3.6534,-3.6534,-3.6535,-3.6492,-3.649,-3.6488,-3.6486,-3.652,-3.6523,-3.6526,0,0,0,0,0,0,0,0,0,0,0,0,0,-3.6434,-3.6396,-3.6499,-3.6483,-3.6482,-3.6534,-3.6534,-3.6535,-3.6492,-3.649,-3.6488,-3.6486,-3.6519,-3.6522,-3.6526,-3.6595,0,0,-3.6537,-3.6538,0,0,0,0,0,0,0,0,-3.6432,-3.6438,-3.6485,-3.6484,-3.6483,-3.6506,-3.6509,-3.6555,-3.6493,-3.6488,-3.6487,-3.6484,-3.6518,-3.6521,-3.6533,-3.6596,-3.6598,-3.6537,-3.6539,-3.6541,-3.6542,0,0,0,0,0,0,0,-3.6429,-3.6437,-3.6513,-3.6485,-3.6484,-3.6473,-3.6476,-3.6517,-3.6516,-3.6489,-3.6486,-3.649,-3.6517,-3.6529,-3.6533,-3.6598,-3.6537,-3.654,-3.6542,-3.6544,-3.6719,-3.6721,0,0,0,0,0,0,-3.6429,-3.6434,-3.6512,-3.6514,-3.6451,-3.6477,-3.648,-3.6501,-3.6515,-3.6515,-3.6492,-3.6488,-3.6525,-3.6529,-3.6534,-3.6615,-3.6541,-3.6544,-3.6546,-3.6716,-3.6719,-3.6722,0,0,0,0,0,0,-3.6427,-3.6436,-3.651,-3.6473,-3.6482,-3.6481,-3.6504,-3.6503,-3.6516,-3.6518,-3.6517,-3.6506,-3.6523,-3.6529,-3.658,-3.6616,-3.6546,-3.6549,-3.6713,-3.6717,-3.6721,-3.6778,0,0,0,0,0,0,-3.6424,-3.6435,-3.6462,-3.6474,-3.6484,-3.6556,-3.6507,-3.6505,-3.6522,-3.6517,-3.6531,-3.6531,-3.6522,-3.6575,-3.6583,-3.6619,-3.6551,-3.671,-3.6715,-3.672,-3.6773,-3.6784,-3.6793,0,0,0,0,0,-3.642,-3.6477,-3.6464,-3.6474,-3.6518,-3.6559,-3.6564,-3.6553,-3.6525,-3.6552,-3.6553,-3.653,-3.661,-3.658,-3.659,-3.6627,-3.6708,-3.6714,-3.6719,-3.6769,-3.6782,-3.6792,0,0,0,0,0,0,-3.6469,-3.6478,-3.6464,-3.6527,-3.6542,-3.6551,-3.6585,-3.6567,-3.659,-3.6585,-3.6569,-3.6573,-3.6627,-3.6632,-3.6598,-3.6694,-3.6654,-3.6662,-3.6689,-3.6701,-3.6711,-3.6708,-3.6554,0,0,0,0,0,-3.6487,-3.652,-3.6526,-3.6581,-3.6589,-3.6586,-3.6603,-3.6593,-3.6609,-3.6615,-3.662,-3.6635,-3.6663,-3.6682,-3.6709,-3.6773,-3.6775,-3.6804,-3.6813,-3.6821,-3.6828,-3.6862,-3.6875,-3.6741,-3.6741,-3.6741,0,0,-3.6525,-3.6534,-3.6556,-3.6591,-3.6602,-3.6636,-3.6592,-3.6629,-3.6654,-3.662,-3.6669,-3.6673,-3.6688,-3.6746,-3.6772,-3.6752,-3.6866,-3.6829,-3.6835,-3.6838,-3.687,-3.6882,-3.6894,-3.6745,-3.6744,-3.6743,0,0,-3.6611,-3.6621,-3.6668,-3.668,-3.6697,-3.6694,-3.6705,-3.6717,-3.6718,-3.6767,-3.6742,-3.677,-3.682,-3.6832,-3.6844,-3.6934,-3.6913,-3.6942,-3.6993,-3.7026,-3.7037,-3.7046,-3.7078,-3.709,-3.6949,-3.695,-3.695,0,-3.6655,-3.6706,-3.6694,-3.6733,-3.6749,-3.672,-3.6767,-3.6778,-3.6803,-3.6814,-3.6792,-3.6853,-3.6861,-3.6921,-3.6943,-3.6954,-3.6966,-3.6941,-3.7037,-3.7046,-3.7054,-3.7084,-3.7096,-3.6953,-3.6953,-3.6952,-3.6952,0,-3.676,-3.6796,-3.6831,-3.6856,-3.6876,-3.6918,-3.6911,-3.6932,-3.692,-3.692,-3.6968,-3.6977,-3.7005,-3.7018,-3.7007,-3.7076,-3.7064,-3.7039,-3.6999,-3.7071,-3.7099,-3.711,-3.6958,-3.6957,-3.6956,-3.6955,0,0,-3.6879,-3.6896,-3.6909,-3.692,-3.6936,-3.6963,-3.7004,-3.7031,-3.7049,-3.7067,-3.71,-3.7142,-3.7119,-3.7134,-3.7123,-3.7152,-3.7222,-3.7124,-3.7124,-3.7142,-3.7299,-3.7317,-3.7331,-3.7208,-3.721,-3.7212,-3.7297,0,-3.6965,-3.7037,-3.7026,-3.7095,-3.7127,-3.7099,-3.7135,-3.7148,-3.7148,-3.7174,-3.7173,-3.7204,-3.7172,-3.718,-3.7207,-3.7208,-3.7253,-3.7201,-3.7239,-3.724,-3.7236,-3.7346,-3.7366,-3.7446,-3.7308,-3.731,-3.7311,0,-3.7076,-3.7098,-3.717,-3.7181,-3.7194,-3.7226,-3.7249,-3.7275,-3.7289,-3.7287,-3.7302,-3.7286,-3.7326,-3.7285,-3.7339,-3.7303,-3.7318,-3.732,-3.7323,-3.7326,-3.7281,-3.7352,-3.7471,-3.7483,-3.7329,-3.7327,-3.7326,0,-3.7155,-3.7203,-3.7252,-3.7262,-3.7275,-3.7299,-3.7305,-3.7317,-3.7333,-3.7354,-3.7364,-3.7389,-3.7402,-3.7421,-3.7411,-3.7382,-3.7467,-3.7425,-3.7465,-3.7466,-3.7485,-3.7484,-3.7608,-3.7494,-3.7494,-3.7494,-3.7493,0,-3.7253,-3.7298,-3.7288,-3.7318,-3.7367,-3.7354,-3.7403,-3.7406,-3.7416,-3.7446,-3.7423,-3.7451,-3.7436,-3.7463,-3.7456,-3.7501,-3.7507,-3.7506,-3.7504,-3.7508,-3.7509,-3.7518,-3.7512,-3.7497,-3.7496,-3.7495,-3.7495,0,-3.735,-3.7345,-3.7397,-3.7405,-3.7409,-3.7445,-3.7451,-3.7479,-3.7477,-3.7514,-3.7522,-3.7519,-3.7549,-3.7541,-3.7573,-3.7568,-3.7626,-3.7616,-3.7622,-3.7619,-3.766,-3.7657,-3.7795,-3.7812,-3.7687,-3.7688,-3.7689,0,-3.7413,-3.7447,-3.7459,-3.7478,-3.7486,-3.7516,-3.7533,-3.7521,-3.7539,-3.7557,-3.7583,-3.7611,-3.7633,-3.7682,-3.7682,-3.7706,-3.7697,-3.7744,-3.7701,-3.7704,-3.7698,-3.7696,-3.7699,-3.7753,-3.7754,-3.7755,-3.7756,0,-3.7525,-3.7521,-3.7547,-3.7572,-3.7593,-3.7612,-3.7628,-3.7644,-3.7633,-3.7655,-3.7685,-3.7702,-3.7736,-3.7764,-3.7786,-3.7791,-3.7772,-3.777,-3.778,-3.7786,-3.7787,-3.7787,-3.7645,-3.7767,-3.7766,-3.7765,-3.7764,-3.7764,-3.7607,-3.7636,-3.7649,-3.7678,-3.769,-3.7705,-3.7732,-3.7733,-3.7758,-3.7785,-3.7775,-3.7811,-3.7822,-3.785,-3.7859,-3.7885,-3.7867,-3.7883,-3.7887,-3.7891,-3.7896,-3.7783,-3.7889,-3.7889,-3.7889,-3.7888,-3.7888,0,-3.7718,-3.7725,-3.7752,-3.7776,-3.7799,-3.7779,-3.7796,-3.7816,-3.7847,-3.786,-3.7882,-3.7917,-3.7944,-3.7945,-3.797,-3.7991,-3.7982,-3.7998,-3.7996,-3.7998,-3.7911,-3.7899,-3.8004,-3.8004,-3.8004,-3.8004,-3.8004,-3.8004,-3.7779,-3.7826,-3.7823,-3.7876,-3.7882,-3.7917,-3.7928,-3.7942,-3.7952,-3.7992,-3.8015,-3.8016,-3.8023,-3.8049,-3.8072,-3.8071,-3.8082,-3.8101,-3.8097,-3.8016,-3.8004,-3.7993,-3.7982,-3.8103,-3.8103,-3.8182,-3.8182,-3.8183]}]]